Location: Newark
(41.8083°N, 72.2500°W)
Time: 04:09:41
(UTC+00:00)

Transit 2A Rocket - All Passes

Search period start: 30 November 2021 00:00
Search period end: 10 December 2021 00:00
Orbit: 584 x 918 km, 66.7° (Epoch: 29 November)

Date Brightness Start Highest point End Pass type
(mag) Time Alt. Az. Time Alt. Az. Time Alt. Az.
30 Nov - 12:29:12 10° S 12:34:20 40° ESE 12:39:51 10° NE daylight
30 Nov - 14:11:47 10° WSW 14:17:01 36° NW 14:22:35 10° NNE daylight
30 Nov - 16:01:15 10° NNW 16:01:34 10° NNW 16:01:52 10° NNW daylight
30 Nov - 19:32:36 10° NNE 19:33:36 10° NNE 19:34:35 10° NE daylight
30 Nov - 21:12:27 10° NNW 21:18:06 38° NE 21:23:29 10° ESE daylight
30 Nov - 22:55:13 10° NW 23:00:47 39° WSW 23:06:00 10° S visible
01 Dec - 11:47:38 10° SSE 11:51:58 24° ESE 11:56:32 10° NE daylight
01 Dec - 13:28:35 10° SW 13:34:06 57° NW 13:40:04 10° NNE daylight
01 Dec - 15:15:09 10° WNW 15:18:10 14° NNW 15:21:15 10° N daylight
01 Dec - 20:30:05 10° N 20:35:04 26° NE 20:39:53 10° E daylight
01 Dec - 22:12:15 10° NW 22:18:15 66° WSW 22:23:52 10° SSE visible
02 Dec - 11:07:04 10° SE 11:09:42 13° E 11:12:25 10° ENE visible
02 Dec - 12:45:45 10° SSW 12:51:22 89° NW 12:57:26 10° NNE daylight
02 Dec - 14:30:44 10° W 14:34:54 20° NW 14:39:14 10° N daylight
02 Dec - 19:47:52 10° N 19:51:55 18° NE 19:55:51 10° E daylight
02 Dec - 21:29:30 10° NNW 21:35:37 78° ENE 21:41:19 10° SE daylight
02 Dec - 23:13:51 10° WNW 23:17:27 17° WSW 23:20:54 10° SW visible
03 Dec - 12:03:20 10° S 12:08:45 56° ESE 12:14:37 10° NE daylight
03 Dec - 13:46:51 10° WSW 13:51:46 28° NW 13:56:58 10° NNE daylight
03 Dec - 19:05:59 10° N 19:08:36 13° NNE 19:11:12 10° ENE daylight
03 Dec - 20:46:54 10° NNW 20:52:49 49° NE 20:58:21 10° SE daylight
03 Dec - 22:30:08 10° NW 22:35:09 28° WSW 22:39:53 10° SSW visible
04 Dec - 11:21:22 10° S 11:26:18 33° ESE 11:31:34 10° NE visible
04 Dec - 13:03:23 10° WSW 13:08:47 43° NW 13:14:32 10° NNE daylight
04 Dec - 14:51:17 10° NW 14:53:09 11° NNW 14:55:04 10° N daylight
04 Dec - 20:04:26 10° NNW 20:09:52 32° NE 20:15:02 10° ESE daylight
04 Dec - 21:46:59 10° NW 21:52:43 47° WSW 21:58:05 10° S visible
05 Dec - 10:40:02 10° SSE 10:43:57 20° ESE 10:48:04 10° ENE visible
05 Dec - 12:20:19 10° SW 12:25:56 67° WNW 12:32:00 10° NNE daylight
05 Dec - 14:06:17 10° WNW 14:09:48 16° NW 14:13:26 10° N daylight
05 Dec - 19:22:07 10° N 19:26:47 22° NE 19:31:17 10° E daylight
05 Dec - 21:04:06 10° NNW 21:10:09 79° WSW 21:15:48 10° SSE daylight
05 Dec - 22:50:06 10° W 22:51:41 11° W 22:53:14 10° WSW visible
06 Dec - 10:00:27 10° ESE 10:01:45 11° E 10:03:04 10° E visible
06 Dec - 11:37:37 10° SSW 11:43:14 77° ESE 11:49:18 10° NNE daylight
06 Dec - 13:22:05 10° W 13:26:35 23° NW 13:31:18 10° N daylight
06 Dec - 18:40:00 10° N 18:43:34 16° NE 18:47:04 10° ENE daylight
06 Dec - 20:21:25 10° NNW 20:27:27 66° ENE 20:33:05 10° SE daylight
06 Dec - 22:05:16 10° WNW 22:09:27 20° WSW 22:13:27 10° SSW visible
07 Dec - 10:55:21 10° S 11:00:41 46° ESE 11:06:24 10° NE visible
07 Dec - 12:38:21 10° WSW 12:43:31 33° NW 12:48:58 10° NNE daylight
07 Dec - 17:58:24 10° N 18:00:13 11° NNE 18:02:00 10° NE daylight
07 Dec - 19:38:51 10° NNW 19:44:36 42° NE 19:50:00 10° ESE daylight
07 Dec - 21:21:49 10° NW 21:27:07 34° WSW 21:32:06 10° S daylight
08 Dec - 10:13:34 10° SSE 10:18:16 28° ESE 10:23:14 10° NE visible
08 Dec - 11:55:02 10° SW 12:00:34 50° NW 12:06:30 10° NNE daylight
08 Dec - 13:42:07 10° WNW 13:44:46 13° NNW 13:47:27 10° N daylight
08 Dec - 18:56:26 10° NNW 19:01:37 28° NE 19:06:31 10° ESE daylight
08 Dec - 20:38:46 10° NW 20:44:39 57° WSW 20:50:06 10° SSE daylight
09 Dec - 09:32:36 10° SE 09:35:58 16° ESE 09:39:28 10° ENE visible
09 Dec - 11:12:05 10° SSW 11:17:47 79° WNW 11:23:53 10° NNE visible
09 Dec - 12:57:30 10° W 13:01:28 18° NW 13:05:33 10° N daylight
09 Dec - 18:14:10 10° N 18:18:28 20° NE 18:22:38 10° E daylight
09 Dec - 19:55:57 10° NNW 20:02:02 88° ENE 20:07:39 10° SSE daylight
09 Dec - 21:40:52 10° WNW 21:43:43 14° W 21:46:28 10° SW visible
